JAS-2 (FO-29)

Last updated on Tue Sep 16 2025 00:03:08 GMT+0000 (Coordinated Universal Time)

1 24278U 96046B 25258.56982134 -.00000028 00000+0 44288-5 0 9999 2 24278 98.5586 139.5019 0350911 88.6812 275.4496 13.53253595436029
UTC large
Height (km)
Speed (km/s)
/
Latitude / Longitude
Inclination (degrees)
Orbital Period (minutes)
Azimuth
Elevation
Range (km)
Doppler Factor

Next 0 passes for location: London (51.5072 / 0.1276)

Sorry there are no passes over London.